CAPE
29 20 19 9 6 3 1 1 1 2 4 3 3 3 3 3 1 4 4 3 2 2 2 1 0 0 0 0 0 0 0 0 0 0 0 0 0 0 0 0 100 223 256 85 1 0 0
17 16 5 4 2 5 4 5 6 4 1 1 1 2 5 3 3 4 4 2 1 3 2 1 0 0 0 0 0 0 0 0 0 0 0 0 0 0 0 0 0 21 45 10 0 0 0
5 1 3 4 5 5 5 2 2 2 1 4 2 1 1 3 3 3 2 1 3 1 4 2 0 0 0 0 0 0 0 0 0 0 0 0 0 0 0 0 0 0 0 0 0 0 33
4 7 4 4 3 2 2 3 4 2 3 4 3 3 3 2 1 1 1 2 0 2 0 1 2 0 0 0 0 0 0 0 0 0 0 0 0 0 0 0 0 0 0 40 59 33 140
4 4 2 2 2 1 4 6 3 5 6 3 2 5 4 1 1 3 2 0 1 1 1 1 0 0 0 0 0 0 0 0 0 0 0 0 0 0 0 0 0 0 25 51 109 179 335
5 2 1 3 3 5 8 8 7 6 8 3 4 10 10 1 1 2 0 0 0 0 0 0 0 0 0 0 0 0 0 0 0 0 0 0 0 0 0 0 0 0 4 71 11 347 371
1 1 2 2 2 7 13 11 11 9 7 6 9 12 6 5 0 1 0 0 0 0 0 0 0 0 0 0 0 0 0 0 0 0 0 0 0 0 0 0 0 0 1 21 0 174 126
4 2 6 3 8 9 9 6 0 4 1 7 14 9 8 4 2 0 0 0 0 0 0 0 0 0 0 0 0 0 0 0 0 0 0 0 0 0 0 0 0 0 0 10 0 0 0
4 2 5 10 11 13 8 0 1 1 7 10 9 8 2 2 1 0 0 0 0 0 0 0 0 0 0 0 0 0 0 0 0 0 0 0 0 0 0 0 0 0 0 17 8 0 0
3 2 4 8 14 6 3 2 3 6 8 8 7 6 2 0 0 0 0 0 0 0 0 0 0 0 0 0 0 0 0 0 0 0 0 0 0 0 0 0 0 0 0 0 0 0 0
5 3 3 11 8 7 2 2 4 5 5 6 6 2 1 1 0 0 0 0 0 0 0 0 0 0 0 0 0 0 0 0 0 0 0 0 0 0 0 0 0 19 0 0 0 0 0
6 3 6 9 3 4 2 2 2 1 3 4 2 1 0 0 0 0 0 0 0 0 0 0 0 0 0 0 0 0 0 0 0 0 0 0 0 0 0 2 0 10 0 0 0 0 0
5 4 3 6 1 1 1 1 2 0 1 0 0 0 0 0 0 0 0 0 0 3 0 0 0 0 0 0 0 0 0 0 0 0 0 0 0 0 1 7 0 4 0 0 0 0 0
4 6 4 4 0 1 1 2 2 0 0 0 0 0 0 0 0 0 0 0 18 0 0 0 0 0 0 0 0 0 0 0 0 0 16 0 0 0 0 2 1 0 3 0 0 0 0
4 5 6 6 0 1 1 1 1 1 0 0 0 0 0 0 0 0 1 41 6 0 0 0 0 0 0 0 0 0 0 0 0 0 0 10 1 0 0 0 0 0 6 3 0 0 5
3 2 5 4 0 1 0 0 0 1 0 0 68 11 0 0 0 0 5 0 6 0 0 1 10 0 8 1 4 10 0 0 0 0 0 0 0 0 0 0 0 0 0 0 0 0 0
0 1 3 3 2 1 0 0 0 0 0 0 8 51 0 0 0 1 21 2 0 0 0 5 14 10 0 7 6 11 0 0 0 0 0 0 0 0 0 0 0 0 0 0 0 0 1
0 1 3 4 1 0 0 0 0 0 0 0 0 41 0 0 0 0 0 0 0 0 0 0 0 3 2 15 23 16 4 0 0 0 0 0 0 0 0 0 0 0 0 0 1 5 0
0 0 2 4 1 1 0 0 0 0 0 0 0 0 0 0 6 0 0 0 0 0 0 0 0 0 0 1 12 4 0 0 0 0 0 0 0 0 0 0 0 0 0 0 0 0 19
0 0 1 2 2 1 0 0 0 0 0 0 0 0 0 0 0 0 0 0 0 0 0 0 0 0 0 0 2 0 0 0 0 0 0 0 0 0 0 0 0 0 0 0 0 1 28
0 0 1 1 3 2 0 0 0 0 0 0 0 0 0 0 0 0 0 0 0 0 0 0 0 0 0 1 2 0 0 0 0 0 0 2 11 0 0 0 0 0 0 0 0 0 1
0 0 0 1 2 2 0 0 0 0 0 0 0 0 0 0 0 0 0 0 0 0 0 0 0 0 0 0 0 0 0 0 0 0 0 0 2 0 0 0 0 0 0 0 0 0 0
0 0 0 1 2 2 0 0 0 0 0 0 0 0 0 0 0 0 0 0 0 0 0 0 0 0 0 0 0 0 0 0 0 0 0 0 0 0 0 0 0 0 0 0 0 0 0
0 0 0 1 2 2 0 0 0 0 0 0 0 0 0 0 0 0 0 0 0 0 0 0 0 0 0 0 0 0 0 0 0 0 0 0 0 0 0 0 0 0 0 0 0 0 0
0 0 0 0 1 2 1 0 0 0 0 0 0 0 0 0 0 0 0 0 0 0 0 0 0 0 0 0 0 1 1 0 0 0 0 0 0 0 0 0 0 0 0 0 0 0 0
0 0 0 0 1 2 2 0 0 0 0 0 0 0 0 0 0 0 0 0 0 0 0 0 0 0 0 5 3 14 16 16 3 0 0 0 0 0 0 1 0 0 0 0 0 0 0
0 0 0 0 0 1 0 1 0 0 0 0 0 0 0 0 0 0 0 0 0 0 0 0 0 0 0 1 18 19 15 1 4 3 1 6 9 10 5 7 1 0 0 0 0 0 0
0 0 0 0 0 1 1 1 0 0 0 0 0 0 0 0 0 0 0 0 0 0 0 0 0 0 0 0 1 7 10 8 1 0 0 4 12 20 15 21 12 0 0 0 0 0 0
0 0 0 0 0 0 1 1 0 0 0 0 0 0 0 0 0 0 0 0 0 0 0 0 0 0 0 0 0 0 8 1 5 10 0 6 1 26 7 18 0 0 0 0 0 0 0
CIN
-0 -0 -0 -0 -0 -0 -0 -0 -0 -0 -0 -0 -0 -0 -0 -0 -0 -0 -0 -0 -0 -0 -0 -0 -0 -0 -0 -0 -0 -0 -0 -0 -0 -0 -0 -0 -0 -0 -0 -0 -25 -22 -2 -20 -8 -0 -0
-0 -0 -0 -0 -0 -0 -0 -0 -0 -0 -0 -0 -0 -0 -0 -0 -0 -0 -0 -0 -0 -0 -0 -0 -0 -0 -0 -0 -0 -0 -0 -0 -0 -0 -0 -0 -0 -0 -0 -0 -0 -10 -45 -35 -0 -0 -0
-0 -0 -0 -0 -0 -0 -0 -0 -0 -1 -0 -0 -1 -0 -0 -0 -0 -0 -0 -0 -0 -0 -0 -0 -0 -0 -0 -0 -0 -0 -0 -0 -0 -0 -0 -0 -0 -0 -0 -0 -0 -0 -0 -0 -0 -0 -42
-0 -0 -0 -0 -0 -0 -1 -0 -0 -0 -0 -0 -0 -0 -0 -0 -0 -0 -0 -0 -0 -0 -0 -0 -0 -0 -0 -0 -0 -0 -0 -0 -0 -0 -0 -0 -0 -0 -0 -0 -0 -0 -1 -0 -9 -26 -44
-0 -0 -0 -0 -0 -0 -0 -0 -0 -0 -0 -0 -0 -0 -0 -0 -0 -0 -0 -0 -0 -0 -0 -0 -0 -0 -0 -0 -0 -0 -0 -0 -0 -0 -0 -0 -0 -0 -0 -0 -0 -0 -22 -0 -5 -7 -14
-0 -0 -0 -0 -0 -0 -0 -0 -0 -0 -0 -0 -0 -0 -0 -0 -0 -1 -0 -0 -0 -0 -0 -0 -0 -0 -0 -0 -0 -0 -0 -0 -0 -0 -0 -0 -0 -0 -0 -0 -0 -0 -0 -0 -3 -2 -0
-0 -0 -0 -0 -0 -0 -0 -0 -0 -0 -0 -0 -0 -0 -0 -0 -0 -0 -0 -0 -0 -0 -0 -0 -0 -0 -0 -0 -0 -0 -0 -0 -0 -0 -0 -0 -0 -0 -0 -0 -0 -0 -0 -0 -0 -3 -0
-0 -0 -0 -0 -0 -0 -0 -0 -0 -0 -0 -0 -0 -0 -1 -1 -0 -0 -0 -0 -0 -0 -0 -0 -0 -0 -0 -0 -0 -0 -0 -0 -0 -0 -0 -0 -0 -0 -0 -0 -0 -0 -0 -0 -0 -0 -0
-0 -0 -0 -0 -0 -0 -0 -0 -0 -0 -0 -0 -0 -0 -0 -0 -0 -0 -0 -0 -0 -0 -0 -0 -0 -0 -0 -0 -0 -0 -0 -0 -0 -0 -0 -0 -0 -0 -0 -0 -0 -0 -0 -0 -0 -0 -0
-0 -0 -0 -0 -0 -0 -0 -0 -0 -0 -0 -0 -0 -0 -0 -0 -0 -0 -0 -0 -0 -0 -0 -0 -0 -0 -0 -0 -0 -0 -0 -0 -0 -0 -0 -0 -0 -0 -0 -0 -0 -0 -0 -0 -0 -0 -0
-0 -0 -0 -0 -0 -0 -0 -0 -0 -0 -0 -0 -0 -0 -0 -0 -0 -0 -0 -0 -0 -0 -0 -0 -0 -0 -0 -0 -0 -0 -0 -0 -0 -0 -0 -0 -0 -0 -0 -0 -0 -0 -0 -0 -0 -0 -0
-0 -0 -0 -0 -0 -0 -0 -0 -0 -0 -0 -0 -0 -0 -0 -0 -0 -0 -0 -0 -0 -0 -0 -0 -0 -0 -0 -0 -0 -0 -0 -0 -0 -0 -0 -0 -0 -0 -0 -0 -0 -1 -0 -0 -0 -0 -0
-0 -0 -0 -0 -0 -0 -0 -0 -0 -0 -0 -0 -0 -0 -0 -0 -0 -0 -0 -0 -0 -0 -0 -0 -0 -0 -0 -0 -0 -0 -0 -0 -0 -0 -0 -0 -0 -0 -0 -0 -0 -0 -0 -0 -0 -0 -0
-0 -0 -0 -0 -0 -0 -0 -0 -0 -0 -0 -0 -0 -0 -0 -0 -0 -0 -0 -0 -0 -0 -0 -0 -0 -0 -0 -0 -0 -0 -0 -0 -0 -0 -0 -0 -0 -0 -0 -0 -0 -0 -0 -0 -0 -0 -0
-0 -0 -0 -0 -0 -0 -0 -0 -0 -0 -0 -0 -0 -22 -0 -0 -0 -0 -0 -0 -21 -0 -0 -0 -0 -0 -0 -0 -0 -0 -0 -0 -0 -0 -1 -0 -0 -0 -0 -0 -0 -0 -0 -0 -0 -0 -0
-0 -0 -0 -0 -0 -0 -0 -0 -0 -0 -0 -0 -174 -194 -32 -0 -0 -0 -1 -0 -41 -0 -0 -14 -17 -0 -2 -0 -0 -0 -0 -0 -0 -0 -0 -0 -0 -0 -0 -0 -0 -0 -0 -0 -0 -0 -0
-0 -0 -0 -0 -0 -0 -0 -0 -0 -0 -0 -0 -228 -86 -0 -0 -0 -8 -4 -8 -0 -0 -0 -56 -37 -6 -0 -2 -2 -21 -16 -0 -0 -0 -0 -0 -0 -0 -0 -0 -0 -0 -0 -0 -0 -0 -0
-0 -0 -0 -0 -0 -0 -0 -0 -0 -0 -0 -0 -0 -59 -0 -0 -0 -0 -0 -0 -0 -0 -0 -0 -0 -49 -4 -54 -34 -47 -96 -3 -0 -0 -0 -0 -0 -0 -0 -0 -0 -0 -0 -0 -0 -0 -0
-0 -0 -0 -0 -0 -0 -0 -0 -0 -0 -0 -0 -0 -0 -0 -0 -59 -0 -0 -0 -0 -0 -0 -0 -0 -0 -0 -64 -49 -47 -86 -0 -0 -40 -0 -0 -0 -0 -0 -0 -0 -0 -0 -0 -0 -0 -0
-0 -0 -0 -0 -0 -0 -0 -0 -0 -0 -0 -0 -0 -0 -0 -0 -0 -0 -0 -0 -0 -0 -0 -0 -0 -0 -38 -0 -56 -31 -0 -0 -0 -0 -0 -0 -0 -0 -0 -0 -0 -0 -0 -0 -0 -0 -0
-0 -0 -0 -0 -0 -0 -0 -0 -0 -0 -0 -0 -0 -0 -0 -0 -0 -0 -0 -0 -0 -0 -0 -0 -0 -0 -0 -81 -91 -25 -0 -0 -0 -0 -0 -18 -10 -0 -0 -0 -0 -0 -0 -0 -0 -0 -0
-0 -0 -0 -0 -0 -0 -0 -0 -0 -0 -0 -0 -0 -0 -0 -0 -0 -0 -0 -0 -0 -0 -0 -0 -0 -0 -0 -0 -0 -0 -0 -0 -0 -0 -0 -0 -9 -0 -0 -0 -0 -0 -0 -0 -0 -0 -0
-0 -0 -0 -0 -0 -0 -0 -0 -0 -0 -0 -0 -0 -0 -0 -0 -0 -0 -0 -0 -0 -0 -0 -0 -0 -0 -0 -0 -0 -0 -0 -0 -0 -0 -0 -0 -0 -0 -0 -0 -0 -0 -0 -0 -0 -0 -0
-0 -0 -0 -0 -0 -0 -0 -0 -0 -0 -0 -0 -0 -0 -0 -0 -0 -0 -0 -0 -0 -0 -0 -0 -0 -0 -0 -0 -0 -0 -0 -0 -0 -0 -0 -0 -0 -0 -0 -0 -0 -0 -0 -0 -0 -0 -0
-0 -0 -0 -0 -0 -0 -0 -0 -0 -0 -0 -0 -0 -0 -0 -0 -0 -0 -0 -0 -0 -0 -0 -0 -0 -0 -0 -0 -0 -0 -0 -0 -0 -0 -0 -0 -0 -0 -0 -0 -0 -0 -0 -0 -0 -0 -0
-0 -0 -0 -0 -0 -0 -0 -0 -0 -0 -0 -0 -0 -0 -0 -0 -0 -0 -0 -0 -0 -0 -0 -0 -0 -0 -0 -0 -0 -0 -0 -0 -0 -0 -0 -0 -0 -0 -0 -0 -0 -0 -0 -0 -0 -0 -0
-0 -0 -0 -0 -0 -0 -0 -0 -0 -0 -0 -0 -0 -0 -0 -0 -0 -0 -0 -0 -0 -0 -0 -0 -0 -0 -0 -0 -0 -0 -0 -0 -0 -0 -0 -0 -0 -0 -0 -0 -0 -0 -0 -0 -0 -0 -0
-0 -0 -0 -0 -0 -0 -0 -0 -0 -0 -0 -0 -0 -0 -0 -0 -0 -0 -0 -0 -0 -0 -0 -0 -0 -0 -0 -0 -0 -0 -0 -0 -0 -0 -0 -0 -0 -0 -0 -0 -0 -0 -0 -0 -0 -0 -0
-0 -0 -0 -0 -0 -0 -0 -0 -0 -0 -0 -0 -0 -0 -0 -0 -0 -0 -0 -0 -0 -0 -0 -0 -0 -0 -0 -0 -0 -0 -0 -0 -0 -0 -0 -0 -0 -0 -0 -0 -0 -0 -0 -0 -0 -0 -0
Wind_Speed
12 10 11 12 12 13 13 13 13 14 14 15 15 15 15 15 15 15 16 15 15 14 12 10 8 6 8 8 2 7 15 16 18 17 19 17 16 12 12 11 8 8 4 2 4 3 2
15 14 15 14 14 14 14 14 15 15 15 16 16 15 15 16 16 15 16 17 17 15 13 10 6 4 9 7 4 11 16 19 17 18 17 14 11 7 8 9 11 4 8 6 4 1 6
16 16 15 15 15 14 15 16 16 16 16 15 16 16 15 15 16 16 17 17 19 17 13 9 7 7 8 5 2 10 14 15 16 14 16 14 7 12 6 7 7 6 9 8 2 5 8
15 15 15 15 16 16 16 16 16 16 16 16 16 16 17 16 16 16 16 18 19 18 9 8 9 7 4 2 6 11 11 13 10 10 10 5 10 8 10 5 8 11 8 12 7 7 6
15 15 16 16 17 17 16 16 18 17 16 16 16 17 17 16 16 14 15 16 10 9 11 11 9 7 6 3 12 12 12 15 13 10 7 7 10 11 8 13 11 11 12 12 9 4 8
16 16 17 17 17 17 17 17 18 18 17 17 16 16 17 16 15 12 15 12 1 10 9 7 4 7 6 9 12 11 7 13 14 12 11 11 9 10 13 14 14 16 14 11 9 10 9
16 17 18 18 19 17 17 18 18 19 18 17 17 16 16 14 14 11 10 5 8 8 8 5 3 3 11 11 13 13 13 13 11 14 13 15 12 17 17 16 8 10 15 14 6 7 6
17 18 18 19 18 17 17 17 18 19 19 18 17 15 13 12 12 10 7 6 6 6 5 9 8 6 4 6 12 17 16 12 14 15 14 11 17 15 13 10 9 9 13 10 6 6 7
17 18 18 17 16 17 16 16 18 18 19 18 17 14 12 12 11 4 4 4 3 6 7 7 5 7 10 11 15 20 19 10 15 16 16 16 10 10 12 16 14 13 14 12 6 8 5
16 18 18 17 18 18 18 19 18 19 19 17 15 14 12 11 5 2 2 3 9 7 7 7 7 8 8 10 9 21 22 12 9 14 15 11 7 15 18 18 16 14 8 4 9 8 10
16 18 19 18 19 20 20 20 20 19 18 17 16 14 10 7 5 2 6 9 3 6 6 4 8 4 12 17 20 15 21 12 13 11 10 10 16 18 19 17 15 5 9 12 9 10 2
15 18 18 18 19 20 20 21 20 21 18 17 18 13 7 5 4 3 7 5 7 10 6 3 3 12 15 10 8 16 17 12 4 10 15 2 12 14 13 12 13 10 10 8 7 11 11
16 17 19 18 20 20 20 21 21 23 19 17 17 14 7 3 5 7 7 8 7 4 1 5 3 12 16 11 9 20 19 16 11 12 13 7 12 11 13 16 15 14 15 9 10 10 9
16 16 17 19 20 21 21 22 21 22 20 19 15 7 7 4 7 6 6 7 3 4 7 3 1 8 10 11 7 10 12 11 2 11 14 13 14 15 7 15 13 18 17 8 11 13 13
15 16 17 18 19 20 22 22 22 21 20 18 12 5 4 7 4 5 8 6 8 7 7 7 8 10 11 7 7 8 6 6 5 8 7 14 9 6 2 2 8 19 19 12 8 5 13
15 17 18 18 19 20 21 22 23 23 21 14 4 3 8 9 4 8 1 7 6 8 6 4 10 5 8 7 10 7 3 5 3 7 7 1 7 3 3 5 2 7 12 11 9 13 14
15 17 17 18 19 20 21 23 25 24 21 10 5 4 8 7 7 2 5 6 5 9 6 7 4 8 3 5 5 3 4 7 6 5 5 6 7 10 9 3 4 10 10 11 12 9 12
14 15 16 18 19 20 21 23 25 24 23 6 4 1 9 5 2 3 8 5 3 9 6 4 5 6 8 2 7 3 6 6 8 5 2 6 6 10 8 5 3 3 5 9 11 13 8
14 14 16 17 19 20 21 22 23 21 15 6 3 5 8 7 3 7 6 8 10 10 11 4 5 6 3 3 4 6 5 4 7 3 4 4 2 9 11 9 5 3 2 4 9 9 16
12 15 16 16 18 20 21 21 22 21 12 6 2 1 5 6 4 5 7 7 5 7 10 8 5 1 3 5 3 8 7 4 3 7 5 6 4 6 2 8 7 8 3 1 9 12 8
12 14 16 17 18 19 20 22 23 22 13 6 4 5 4 4 7 8 7 3 6 3 5 4 5 5 3 3 6 6 4 6 4 4 1 6 5 5 6 6 4 3 3 2 1 5 7
11 13 14 15 16 18 20 22 25 25 18 2 2 0 4 6 2 6 4 6 7 7 4 8 8 8 5 7 6 7 4 0 4 2 2 4 4 5 4 1 1 5 3 2 2 3 6
10 12 13 14 16 16 17 19 22 26 17 4 2 2 5 1 3 1 8 5 5 4 8 7 5 5 7 6 5 5 4 4 4 4 2 2 5 7 9 3 3 9 10 5 6 2 1
7 10 12 13 14 15 15 16 18 20 17 4 4 3 1 5 5 7 6 6 8 7 7 6 3 2 4 5 6 5 6 6 4 2 4 5 5 3 3 7 9 9 4 2 3 6 6
6 8 9 11 11 13 13 14 15 16 18 4 2 4 2 3 6 7 6 7 7 6 6 7 8 6 6 4 4 6 6 6 6 3 2 4 4 3 4 10 5 8 7 7 12 9 3
7 7 8 9 10 11 12 13 13 14 15 4 5 4 4 2 4 5 6 3 3 4 7 6 5 4 4 4 1 4 2 4 5 6 0 4 2 4 5 5 5 12 7 3 3 7 7
7 8 8 7 8 9 10 11 12 12 13 6 4 5 4 1 6 5 1 2 2 1 2 4 5 6 6 1 2 1 2 2 3 3 5 6 5 7 7 5 0 7 7 4 8 8 8
5 6 7 6 5 6 8 9 10 12 11 6 4 4 6 3 7 5 4 4 4 2 1 7 6 5 4 4 2 3 2 3 2 3 3 5 4 4 5 3 6 11 6 5 8 7 5
5 5 5 5 4 4 5 7 9 10 10 8 1 1 4 5 6 1 3 1 2 3 2 4 5 2 3 2 2 3 3 4 5 2 5 4 3 2 5 1 3 12 3 6 3 5 4
Wind_Direction
21 19 6 9 360 355 350 347 345 342 339 339 337 333 332 328 325 325 323 320 317 313 309 305 302 289 251 224 284 72 151 154 172 187 185 180 186 197 203 202 186 212 224 222 186 202 203
23 15 5 359 358 351 348 344 342 341 338 334 331 331 330 327 324 323 322 317 310 304 296 286 272 254 251 241 15 134 147 156 172 189 186 192 198 196 221 218 222 163 235 257 265 117 141
13 6 2 356 351 348 346 343 341 337 335 332 328 327 327 325 322 323 319 315 306 294 280 259 231 234 251 22 34 145 155 162 166 187 185 201 218 202 156 180 213 221 236 198 188 147 145
6 360 356 352 348 345 343 341 337 336 333 330 327 324 324 324 321 320 320 317 307 285 244 213 204 215 285 62 166 163 156 146 155 181 201 156 225 211 231 92 197 220 233 198 133 180 134
4 358 353 350 348 344 339 336 337 334 330 328 327 321 322 322 321 321 321 317 325 94 140 165 194 239 135 163 166 165 176 165 160 148 165 191 210 215 172 206 189 200 204 211 137 217 147
358 353 352 350 345 343 339 335 334 334 329 328 322 319 317 321 323 322 316 294 225 149 151 187 265 225 173 182 150 156 189 165 169 153 151 186 205 209 215 204 198 187 230 185 161 166 194
354 352 349 346 346 341 337 336 329 327 323 319 321 317 318 318 323 323 289 194 196 173 211 281 108 345 137 107 143 169 159 165 177 187 186 193 203 209 196 210 304 184 209 181 123 164 206
353 349 346 347 341 338 336 334 324 323 319 320 315 315 316 323 324 317 240 264 31 7 275 213 248 254 216 168 151 167 175 170 180 188 188 176 219 199 198 193 178 195 196 177 141 132 254
352 347 346 340 338 335 334 328 325 322 323 320 320 322 323 317 313 227 273 16 316 308 255 136 185 227 184 197 172 167 192 184 197 194 196 205 192 169 197 194 195 196 207 166 200 166 202
346 348 344 340 337 332 332 328 324 325 325 324 326 325 322 311 264 135 175 321 292 225 250 114 172 180 179 204 174 167 194 192 194 204 205 232 143 181 196 198 208 193 214 169 191 216 206
344 347 345 342 338 336 333 327 325 332 333 330 330 324 318 274 341 235 3 316 238 225 209 95 129 102 159 203 134 172 190 204 202 196 199 197 195 193 194 199 207 161 177 203 206 217 259
346 348 346 344 340 337 330 326 328 338 337 330 329 321 303 204 227 360 296 286 226 231 90 102 138 169 173 173 177 148 185 233 302 192 215 233 206 196 194 183 203 113 170 171 200 220 214
346 346 349 345 337 333 330 329 331 340 337 332 328 312 235 286 350 323 290 234 218 348 164 52 73 177 178 157 150 161 180 195 206 191 192 172 190 178 209 185 193 195 186 172 194 198 227
344 345 350 346 337 334 333 331 333 340 336 333 323 300 194 297 307 291 242 230 57 53 21 20 150 191 130 138 117 141 162 165 104 284 175 190 166 183 192 216 187 208 209 215 200 201 175
345 346 348 344 337 334 333 335 336 338 339 334 322 203 354 9 339 263 249 47 24 8 360 339 185 167 139 122 146 127 91 74 35 349 285 195 120 121 11 245 273 185 227 253 281 292 204
347 347 347 345 338 335 337 340 339 340 338 334 265 237 33 351 301 249 58 83 76 20 329 288 131 295 177 125 160 148 132 40 34 15 318 253 134 222 100 209 171 290 216 209 239 183 220
348 346 343 342 342 338 341 344 343 342 336 330 240 243 29 353 255 352 60 67 49 49 5 17 59 139 14 103 67 80 53 81 13 345 328 300 262 142 197 252 196 190 209 239 239 261 220
347 342 342 344 341 340 344 349 345 343 332 271 309 252 18 296 67 36 54 16 324 19 45 82 62 51 89 70 91 86 106 35 351 304 30 6 303 166 110 109 324 317 328 245 224 195 258
345 342 343 345 342 343 348 352 347 345 344 313 30 25 29 281 95 96 105 88 43 32 31 44 51 47 35 104 113 117 122 54 4 23 16 359 325 153 168 170 179 185 139 262 275 288 215
345 343 345 348 345 345 347 353 351 347 327 284 295 134 78 57 24 80 115 63 107 37 51 53 39 80 159 92 85 147 133 77 36 34 346 258 124 357 315 62 106 154 127 4 260 234 211
346 344 345 353 348 346 348 354 354 349 331 282 343 67 348 42 62 70 79 72 85 94 68 14 54 42 0 138 117 122 132 149 95 33 285 316 146 127 70 65 65 100 107 43 3 335 274
345 343 350 352 351 350 351 357 357 351 338 36 7 61 92 80 78 109 137 70 78 89 359 61 87 59 58 85 2 136 151 49 37 356 354 329 155 180 146 91 323 254 167 199 172 141 103
343 346 348 353 357 355 355 359 2 357 339 53 88 120 300 135 96 15 44 56 78 103 69 64 85 72 73 59 54 70 58 80 56 335 115 276 173 213 216 182 241 236 215 205 127 106 274
340 343 347 354 358 358 357 2 6 6 356 359 26 289 332 81 58 60 90 73 74 57 101 86 77 40 64 141 143 133 113 102 99 98 317 175 173 219 133 194 221 73 99 90 147 99 103
327 343 348 351 358 356 1 5 8 8 359 29 25 303 20 98 97 128 128 110 120 124 82 84 60 32 171 224 159 167 154 172 103 61 135 323 190 186 209 213 74 173 187 186 187 139 101
316 332 345 350 359 358 358 6 10 5 4 311 43 314 306 127 125 122 136 170 134 116 147 110 107 70 203 259 161 262 116 10 153 149 29 165 265 252 188 241 233 69 119 144 191 181 142
302 324 341 353 360 355 356 2 10 8 2 320 57 355 282 338 133 177 148 115 109 119 77 139 147 162 222 144 258 285 133 40 221 205 183 182 193 209 217 238 212 116 137 168 218 83 134
283 310 326 348 2 346 350 355 10 10 2 323 75 3 317 306 134 204 163 146 154 240 245 112 191 183 184 198 196 134 217 181 204 261 253 211 210 203 242 244 239 143 150 246 84 120 131
259 293 314 328 350 348 348 352 8 9 356 332 224 91 310 267 43 277 254 305 328 41 93 170 28 122 54 137 182 154 184 173 202 210 202 239 223 292 244 83 87 166 57 108 127 141 162